TimeMDT,TemperatureF,Dew PointF,Humidity,Sea Level PressureIn,VisibilityMPH,Wind Direction,Wind SpeedMPH,Gust SpeedMPH,PrecipitationIn,Events,Conditions,WindDirDegrees,DateUTC
12:53 AM,75.9,55.0,48,29.87,10.0,South,4.6,-,N/A,,Clear,170,2013-09-03 06:53:00
1:53 AM,75.0,55.0,50,29.88,10.0,Calm,Calm,-,N/A,,Clear,0,2013-09-03 07:53:00
2:53 AM,71.1,55.0,57,29.87,10.0,Calm,Calm,-,N/A,,Clear,0,2013-09-03 08:53:00
3:53 AM,69.1,53.1,57,29.87,10.0,ESE,3.5,-,N/A,,Clear,110,2013-09-03 09:53:00
4:53 AM,68.0,53.1,59,29.87,10.0,SE,4.6,-,N/A,,Clear,140,2013-09-03 10:53:00
5:53 AM,63.0,52.0,67,29.89,10.0,Calm,Calm,-,N/A,,Clear,0,2013-09-03 11:53:00
6:53 AM,64.9,52.0,63,29.91,10.0,Calm,Calm,-,N/A,,Clear,0,2013-09-03 12:53:00
7:53 AM,71.1,55.0,57,29.91,10.0,WSW,3.5,-,N/A,,Clear,240,2013-09-03 13:53:00
8:53 AM,75.0,54.0,48,29.92,10.0,WSW,5.8,-,N/A,,Clear,250,2013-09-03 14:53:00
9:53 AM,79.0,55.0,44,29.92,10.0,West,4.6,-,N/A,,Clear,270,2013-09-03 15:53:00
10:53 AM,84.0,55.0,37,29.91,10.0,Variable,4.6,-,N/A,,Clear,0,2013-09-03 16:53:00
11:53 AM,89.1,53.1,29,29.89,10.0,South,6.9,-,N/A,,Clear,180,2013-09-03 17:53:00
12:53 PM,90.0,52.0,27,29.88,10.0,Calm,Calm,-,N/A,,Clear,0,2013-09-03 18:53:00
1:53 PM,96.1,51.1,22,29.84,10.0,South,3.5,-,N/A,,Clear,170,2013-09-03 19:53:00
2:53 PM,97.0,46.9,18,29.82,10.0,East,6.9,-,N/A,,Clear,80,2013-09-03 20:53:00
3:53 PM,98.1,46.0,17,29.81,10.0,ENE,4.6,-,N/A,,Clear,60,2013-09-03 21:53:00
4:53 PM,98.1,43.0,15,29.81,10.0,East,6.9,-,N/A,,Clear,80,2013-09-03 22:53:00
5:53 PM,97.0,42.1,15,29.82,10.0,ENE,5.8,-,N/A,,Clear,60,2013-09-03 23:53:00
6:53 PM,93.0,44.1,18,29.82,10.0,NE,5.8,-,N/A,,Clear,50,2013-09-04 00:53:00
7:53 PM,91.0,48.0,23,29.81,10.0,ESE,9.2,-,N/A,,Clear,120,2013-09-04 01:53:00
8:53 PM,84.9,51.1,31,29.83,10.0,SE,6.9,-,N/A,,Clear,130,2013-09-04 02:53:00
9:53 PM,84.9,50.0,30,29.84,10.0,South,10.4,-,N/A,,Clear,190,2013-09-04 03:53:00
10:53 PM,82.0,51.1,34,29.85,10.0,SSW,13.8,-,N/A,,Clear,200,2013-09-04 04:53:00
11:53 PM,80.1,52.0,38,29.85,10.0,SSW,11.5,-,N/A,,Clear,200,2013-09-04 05:53:00